Weather History for Faith, SD

Change the Weather History Date:

Tuesday, August 19, 2014

  Actual Average Record
Temperature  
Mean Temperature 74 °F 72 °F  
Max Temperature 88 °F 86 °F 95 °F (2003)
Min Temperature 60 °F 58 °F 39 °F (2004)
Degree Days  
Heating Degree Days 0 1  
Month to date heating degree days 0 3  
Since 1 June heating degree days 122 105  
Since 1 July heating degree days 17 15  
Cooling Degree Days 9 7  
Month to date cooling degree days 141 159  
Year to date cooling degree days 369 504  
Since 1 June cooling degree days 339 492  
Growing Degree Days 24 (Base 50)    
Moisture  
Dew Point 58 °F    
Average Humidity 58    
Maximum Humidity 84    
Minimum Humidity 31    
Precipitation  
Precipitation 0.00 in 0.04 in 0.14 in (2005)
Month to date precipitation 1.93 1.07  
Year to date precipitation 12.87 13.26  
Sea Level Pressure  
Sea Level Pressure 29.75 in    
Wind  
Wind Speed 11 mph (SSE)    
Max Wind Speed 20 mph    
Max Gust Speed 26 mph    
T = Trace of Precipitation, MM = Missing Value Source: NWS Daily Summary

Daily Weather History Graph

Daily Weather History Graph

Search for Another Location

Airport:

Trip Planner

Search our weather history database for the weather conditions in past years. The results will help you decide how hot, cold, wet, or windy it might be!

Date:

Astronomy

Aug. 19, 2014 Rise Set
Actual Time 5:54 AM MDT 7:47 PM MDT
Civil Twilight 5:23 AM MDT 8:19 PM MDT
Nautical Twilight 4:44 AM MDT 8:57 PM MDT
Astronomical Twilight 4:02 AM MDT 9:39 PM MDT
Moon 12:43 AM MDT (8/19) 3:51 PM MDT (8/19)
Length of Visible Light 14h 56m
Length of Day
13h 53m
Waning Crescent, 28% of the Moon is Illuminated
Aug 19
Waning Crescent
Aug 25
New
Sep 2
First Quarter
Sep 8
Full
Sep 15
Last Quarter

Hourly Weather History & Observations

Time (MDT) Temp. Heat Index Dew Point Humidity Pressure Visibility Wind Dir Wind Speed Gust Speed Precip Events Conditions
12:56 AM 70.0 °F - 55.9 °F 61% 29.81 in - East 3.5 mph - N/A   Unknown
1:56 AM 62.1 °F - 57.9 °F 86% 29.83 in - SSW 9.2 mph - N/A   Unknown
2:56 AM 62.1 °F - 57.0 °F 84% 29.82 in - SW 9.2 mph - N/A   Unknown
3:56 AM 62.1 °F - 57.0 °F 84% 29.81 in - SSW 6.9 mph - N/A   Unknown
4:56 AM 62.1 °F - 55.9 °F 80% 29.81 in - SSW 6.9 mph - N/A   Unknown
5:56 AM 60.1 °F - 55.9 °F 86% 29.82 in - South 8.1 mph - N/A   Unknown
6:56 AM 63.0 °F - 57.0 °F 81% 29.81 in - South 9.2 mph - N/A   Unknown
7:56 AM 68.0 °F - 59.0 °F 73% 29.81 in - South 10.4 mph - N/A   Unknown
8:56 AM 72.0 °F - 59.0 °F 64% 29.81 in - SSW 5.8 mph - N/A   Unknown
9:56 AM 77.0 °F - 57.9 °F 52% 29.79 in - SSW 9.2 mph - N/A   Unknown
10:56 AM 80.1 °F 80.6 °F 57.9 °F 47% 29.78 in - SSE 9.2 mph - N/A   Unknown
11:56 AM 82.9 °F 82.8 °F 59.0 °F 44% 29.75 in - South 11.5 mph - N/A   Unknown
12:56 PM 84.0 °F 83.5 °F 57.9 °F 41% 29.74 in - SSE 11.5 mph - N/A   Unknown
1:56 PM 86.0 °F 85.7 °F 60.1 °F 41% 29.73 in - SSE 10.4 mph 20.7 mph N/A   Unknown
2:56 PM 87.1 °F 85.9 °F 57.0 °F 36% 29.72 in - SSE 13.8 mph - N/A   Unknown
3:56 PM 88.0 °F 85.9 °F 54.0 °F 31% 29.71 in - SE 10.4 mph - N/A   Unknown
4:56 PM 87.1 °F 85.7 °F 55.9 °F 35% 29.71 in - SE 12.7 mph - N/A   Unknown
5:56 PM 84.9 °F 83.7 °F 55.9 °F 37% 29.70 in - SE 11.5 mph - N/A   Unknown
6:56 PM 81.0 °F 81.0 °F 57.0 °F 44% 29.70 in - SE 10.4 mph - N/A   Unknown
7:56 PM 77.0 °F - 57.9 °F 52% 29.69 in - SE 10.4 mph - N/A   Unknown
8:56 PM 75.9 °F - 57.9 °F 54% 29.70 in - SE 13.8 mph - N/A   Unknown
9:56 PM 73.9 °F - 59.0 °F 59% 29.69 in - SE 16.1 mph - N/A   Unknown
10:56 PM 73.0 °F - 60.1 °F 64% 29.69 in - SSE 16.1 mph - N/A   Unknown
11:56 PM 72.0 °F - 61.0 °F 68% 29.66 in - SE 12.7 mph - N/A   Unknown